EHI
8 15 22 20 17 18 20 21 22 21 18 17 16 12 8 6 5 5 6 6 2 1 2 3 4 5 7 6 5 5 5 3 2 1 1 1 1 0 0 0 0 0 1
10 15 21 20 16 17 19 20 20 19 18 16 13 10 8 7 7 7 7 5 2 0 1 2 3 4 5 5 3 2 2 2 2 2 1 0 0 0 0 0 0 0 1
13 16 19 20 17 16 18 18 18 17 17 15 13 11 8 8 9 9 6 3 1 0 0 1 1 3 3 2 1 0 0 1 2 2 1 0 0 0 0 0 0 0 1
17 17 19 20 18 17 18 18 17 15 15 14 14 12 10 9 10 9 5 2 1 0 0 0 1 2 1 0 0 1 1 1 1 1 0 0 0 0 0 0 0 0 0
19 18 18 19 19 20 20 19 16 13 12 13 13 12 10 9 8 6 3 1 0 0 1 1 1 1 1 1 1 2 3 2 1 1 0 0 1 2 1 0 0 0 0
17 17 17 18 20 22 22 20 16 13 11 11 12 11 10 9 6 3 1 0 0 0 1 1 0 1 1 1 1 2 3 2 1 0 0 1 2 3 2 2 2 2 1
14 14 15 17 18 21 22 20 17 15 14 12 11 9 8 8 7 3 1 0 1 1 1 1 0 1 2 3 3 3 3 2 0 0 0 1 3 4 5 5 5 5 4
12 11 11 13 15 19 21 20 18 17 16 14 11 7 5 6 6 4 2 1 2 2 2 1 1 2 3 4 5 4 2 1 0 0 0 1 2 4 6 7 6 6 6
12 10 9 10 12 15 17 18 17 17 17 15 12 7 5 4 4 4 3 3 3 3 2 1 2 3 4 4 4 2 1 0 0 0 0 0 2 4 5 5 5 6 7
12 11 10 8 8 10 12 13 14 14 14 14 11 8 5 4 3 3 3 3 3 3 3 3 4 5 4 4 2 1 0 0 0 0 0 1 2 4 4 4 4 6 7
13 12 11 9 7 7 8 9 10 10 10 10 8 7 5 3 2 2 3 3 3 3 3 3 4 5 4 2 1 0 0 0 0 0 0 1 3 4 3 3 4 5 6
14 13 12 11 8 6 6 7 7 7 6 6 6 5 3 2 1 1 1 2 2 2 2 3 3 3 3 1 0 0 0 0 0 0 0 2 3 3 3 4 5 5 6
13 13 13 11 8 6 5 4 4 4 4 4 5 5 3 1 0 0 0 1 1 1 1 1 2 2 1 1 1 1 0 0 0 0 0 1 2 3 4 5 6 7 8
13 13 12 10 7 5 4 3 3 3 3 3 4 4 4 2 0 0 0 0 0 0 0 0 0 0 0 1 1 1 1 0 0 0 0 0 1 2 3 4 6 7 8
13 12 11 9 7 4 3 3 4 3 2 1 2 3 3 1 0 0 0 0 0 0 0 0 0 0 0 0 1 1 1 0 0 0 0 0 1 2 3 4 6 7 7
12 11 10 9 6 4 4 4 4 3 2 0 1 1 1 1 0 0 0 0 0 0 0 0 0 0 0 0 0 0 0 0 0 0 0 0 0 2 3 5 5 5 5
9 9 9 8 7 6 5 5 5 4 3 1 1 1 1 1 1 0 0 0 0 1 1 1 1 1 0 0 0 0 0 0 0 0 0 0 0 1 3 4 5 5 5
6 7 7 8 9 8 7 6 5 4 3 3 2 2 1 2 2 1 0 1 1 2 2 2 2 1 0 0 0 0 0 0 0 0 0 0 0 1 1 2 4 5 6
5 6 6 8 9 9 9 7 6 3 2 2 2 2 1 2 3 3 2 1 1 1 2 2 1 1 0 0 0 0 0 0 0 0 0 0 0 0 0 1 3 4 5
7 7 7 7 8 9 9 8 5 2 1 1 1 1 1 2 4 4 3 2 1 0 1 1 0 0 0 0 0 0 0 0 0 0 0 0 0 0 0 1 2 3 3
10 10 8 7 7 8 7 6 4 3 1 0 1 2 3 3 3 4 4 3 1 1 1 0 0 0 0 0 0 0 0 0 0 0 0 0 0 0 0 0 1 1 2
11 11 9 7 6 7 7 5 5 4 2 1 1 3 4 4 3 3 4 3 3 2 2 2 1 1 0 0 0 0 0 0 0 0 0 0 0 0 0 0 0 0 1
11 11 9 8 8 9 8 8 7 6 4 2 2 3 3 4 4 4 4 3 3 3 3 2 2 1 0 0 0 0 0 0 0 0 0 0 0 0 0 0 0 0 0
12 12 11 10 10 11 12 12 11 8 6 5 4 4 4 3 4 5 5 4 3 3 3 2 1 0 0 0 0 0 0 0 0 0 0 0 0 0 0 0 0 0 0
14 13 12 10 10 13 15 14 12 9 7 6 6 6 5 5 4 4 5 5 4 3 3 2 1 0 0 0 0 0 0 0 0 0 0 0 0 1 1 0 0 0 0
15 12 10 10 10 13 16 16 13 9 7 6 6 6 7 7 5 4 4 4 4 3 3 3 2 1 0 0 0 0 0 0 0 0 1 1 1 2 2 1 0 0 0
Wind_Speed
5 6 10 11 10 11 11 11 11 11 11 11 11 11 11 11 11 11 11 10 10 10 10 10 10 10 10 10 10 10 10 10 10 10 10 10 10 10 11 12 11 9 13
8 8 11 11 11 11 11 11 11 11 11 11 11 11 10 10 10 10 10 10 10 10 10 10 10 10 9 10 9 9 8 9 9 9 9 9 9 9 10 11 11 8 12
10 8 10 12 12 11 11 11 10 10 11 11 11 11 10 10 10 10 10 10 9 9 9 9 9 9 9 9 9 8 8 8 8 8 7 5 6 9 10 11 11 12 12
10 7 8 12 12 11 11 11 10 10 11 11 11 11 10 9 9 9 9 9 8 8 9 9 9 9 9 8 8 8 7 7 7 7 4 3 4 8 10 10 11 11 12
9 7 8 13 12 11 11 11 10 11 11 11 11 10 10 9 8 8 8 8 8 7 8 8 8 8 7 7 6 6 7 7 6 4 3 2 3 7 9 10 11 11 11
8 6 8 13 12 11 11 11 11 11 11 10 10 10 9 8 8 7 7 7 7 7 7 7 7 7 6 6 5 5 6 5 4 3 3 2 3 7 9 10 10 11 11
7 6 7 11 12 11 11 10 10 10 10 9 9 9 8 8 7 6 6 6 6 7 7 7 6 6 5 5 5 6 6 5 4 3 2 2 3 7 9 9 10 10 10
8 6 6 11 12 11 11 10 10 9 9 8 8 8 7 7 6 6 5 5 5 5 6 6 6 5 5 5 5 5 5 5 4 3 3 3 5 6 8 8 9 10 10
6 6 5 5 8 10 10 10 9 8 8 7 7 7 6 6 5 5 5 4 4 4 5 5 5 5 5 5 4 4 4 4 3 2 2 2 5 7 7 7 8 9 10
5 4 4 4 4 4 5 9 9 8 7 6 6 6 5 5 4 4 3 4 4 4 4 4 5 5 5 5 4 4 4 3 3 2 1 2 6 6 7 7 7 9 9
6 4 4 3 3 3 3 5 6 6 6 5 4 4 3 2 2 2 2 3 4 4 4 4 4 5 4 4 4 3 3 2 2 1 0 2 5 6 7 7 7 8 8
8 6 4 4 4 3 3 3 2 2 2 2 2 2 2 2 1 2 1 3 3 3 3 4 4 4 3 2 2 2 1 2 1 1 1 2 4 4 6 6 6 7 8
8 7 6 5 4 4 2 2 1 1 1 1 2 2 2 1 1 2 1 2 2 2 2 2 3 2 2 1 1 1 1 1 0 1 1 3 4 5 5 6 6 7 7
7 7 6 6 4 3 2 2 2 2 1 1 1 2 2 1 1 1 1 1 1 1 1 1 1 2 1 1 1 1 1 0 0 0 1 4 4 5 5 5 5 6 7
7 7 6 6 6 4 3 2 3 2 2 2 1 1 2 1 1 1 1 1 1 1 1 1 1 1 1 1 1 1 0 0 0 0 0 2 3 3 4 5 6 6 7
7 7 6 6 5 5 3 3 2 2 2 2 1 2 2 2 1 1 0 1 1 0 0 0 0 1 1 1 1 1 1 1 1 0 0 0 2 3 3 5 5 6 7
7 6 6 7 5 5 4 3 2 2 2 2 1 1 2 2 2 2 1 1 0 1 1 1 1 1 1 1 1 1 1 1 1 1 0 0 0 1 2 3 4 5 6
7 7 6 6 6 5 4 3 2 2 2 2 1 1 1 2 2 2 2 1 1 1 1 1 1 1 1 1 1 1 1 1 1 1 1 1 0 0 0 1 2 4 5
8 7 7 5 6 5 4 3 3 3 2 1 1 1 1 1 2 2 1 1 1 1 1 1 1 1 1 1 1 1 1 1 1 1 1 1 0 0 0 1 1 3 4
6 6 6 5 5 4 3 3 3 3 2 1 1 1 1 1 2 2 2 1 2 1 1 1 1 1 1 1 1 1 1 1 1 1 1 1 1 1 1 1 1 2 3
6 6 6 5 5 5 4 3 3 2 2 1 1 1 2 2 2 2 2 1 2 1 1 2 1 1 1 1 1 1 1 1 1 1 1 1 1 1 1 1 1 2 2
7 6 6 6 5 5 4 3 2 3 2 1 1 1 1 2 2 2 2 2 2 1 1 1 2 1 1 1 1 1 1 2 2 1 1 1 1 1 1 2 2 2 2
6 7 6 6 5 5 4 3 3 3 2 1 1 0 0 1 1 2 2 2 2 2 2 1 2 2 2 1 1 2 2 2 1 2 1 1 1 1 1 1 1 2 2
6 5 5 5 4 4 5 5 5 4 2 2 1 1 0 0 1 1 2 2 2 2 2 1 2 2 3 2 1 0 1 2 1 1 2 2 1 1 2 1 2 2 2
5 5 5 5 5 4 5 5 5 3 2 1 1 1 1 0 0 1 1 2 2 1 2 1 2 2 2 2 2 1 1 0 1 1 2 2 2 2 2 2 2 1 1
4 5 5 5 4 4 5 5 5 5 4 3 2 2 1 0 0 0 1 1 1 1 1 2 2 2 2 2 2 1 2 2 2 2 2 2 2 2 2 2 1 1 1
Wind_Direction
163 160 158 151 144 136 133 127 123 119 117 115 115 115 117 117 117 118 118 117 119 119 119 120 120 119 121 124 124 125 125 125 132 135 135 132 134 139 140 139 137 137 136
149 154 158 153 146 139 135 130 125 122 120 117 116 116 116 116 115 117 118 118 120 121 121 121 119 119 121 124 126 125 126 126 129 133 136 135 136 142 144 143 142 139 141
141 149 154 153 147 141 136 131 126 124 123 120 117 115 115 116 114 116 117 119 120 119 119 118 118 118 121 125 125 124 122 125 130 128 126 127 140 150 149 145 144 142 143
141 144 150 151 147 143 138 133 128 125 126 123 118 116 116 115 113 113 114 117 119 119 121 118 116 114 119 125 127 130 130 132 132 126 120 131 147 155 153 148 147 147 146
136 137 152 151 149 145 141 135 130 124 124 122 120 117 115 115 114 112 115 117 118 121 123 120 119 118 120 121 127 135 137 136 137 125 116 126 135 157 156 152 151 149 147
133 137 152 151 150 147 143 138 134 131 128 124 122 118 116 114 113 112 115 117 118 121 123 124 124 123 124 125 129 136 131 127 134 122 119 132 140 161 160 160 159 156 152
137 140 151 152 151 149 145 142 139 135 131 128 123 121 119 117 115 117 120 120 121 123 127 126 122 123 122 122 123 128 120 113 113 112 119 134 152 167 167 165 163 159 154
140 139 148 155 153 151 147 144 139 137 134 131 128 126 123 121 118 119 124 125 124 124 127 126 124 126 121 115 115 115 116 113 116 123 123 140 160 172 171 172 166 162 156
131 133 138 148 154 154 150 147 143 138 135 134 131 129 129 129 127 126 126 125 122 120 124 126 126 125 119 115 110 111 119 116 105 112 137 146 161 171 172 166 164 160 160
129 135 135 132 135 145 151 154 149 144 139 136 132 130 131 132 130 128 120 124 127 126 123 120 122 120 117 118 114 112 110 104 94 105 114 150 160 172 172 169 169 165 164
152 151 144 137 133 130 139 157 150 147 138 131 125 123 108 82 84 100 119 125 123 121 117 109 107 112 111 108 110 108 92 81 96 93 118 151 170 175 174 173 173 171 169
171 169 159 153 145 140 155 133 121 127 120 114 103 96 80 73 73 89 86 108 116 111 107 102 96 98 94 82 96 88 76 93 105 121 170 173 174 178 178 177 174 175 176
171 170 170 165 158 155 144 131 121 109 112 115 116 115 100 80 65 58 53 54 62 74 64 68 65 63 72 82 76 80 94 99 136 184 193 193 189 192 189 186 181 178 180
166 176 171 168 164 164 151 145 138 133 136 135 133 131 117 103 80 66 68 55 53 59 75 62 64 59 66 81 100 109 123 133 190 191 206 209 207 202 191 191 190 185 182
170 175 173 171 173 169 157 163 153 152 153 152 151 145 140 138 130 95 75 81 76 74 87 83 80 77 75 62 69 96 62 53 68 4 247 212 211 208 197 197 197 190 187
177 177 171 173 175 165 164 167 158 157 154 150 161 171 162 159 158 156 142 107 95 105 139 149 157 129 122 95 55 43 33 31 37 19 4 249 215 206 200 204 201 196 195
173 171 170 172 168 165 166 173 160 159 153 159 168 163 169 169 167 163 160 154 162 144 126 102 88 98 112 100 58 43 43 26 31 27 27 49 47 198 208 214 200 202 209
163 165 173 174 166 167 165 165 149 146 145 151 146 145 172 175 167 158 159 168 155 132 125 117 98 93 94 94 62 23 22 9 14 13 13 28 48 346 258 246 214 211 217
167 164 169 169 165 168 158 147 135 128 128 130 124 139 185 178 171 161 161 150 131 120 117 131 102 129 144 138 122 39 14 351 336 331 333 329 308 250 251 261 234 230 229
158 157 162 160 156 152 142 122 110 104 104 106 129 144 162 172 163 153 151 139 128 118 113 115 115 89 116 142 115 56 15 341 342 327 293 299 296 267 252 253 247 258 256
146 154 160 159 156 151 158 159 155 156 149 144 158 149 165 160 157 154 160 141 140 151 174 156 137 108 69 96 93 40 4 358 354 317 310 310 292 275 262 250 245 251 263
157 165 162 167 162 163 165 165 158 143 136 141 129 119 150 155 163 167 164 161 154 154 144 139 135 132 98 94 128 110 6 347 344 337 344 315 296 300 277 260 250 248 260
165 171 167 165 157 157 145 126 109 92 78 76 59 43 355 154 156 159 168 167 159 157 167 170 157 157 159 108 99 145 162 221 305 334 341 348 352 339 287 281 264 255 249
174 166 150 148 146 145 138 139 140 144 154 180 165 166 73 110 143 144 149 151 151 147 150 172 161 163 160 175 148 131 168 163 170 319 328 330 331 323 305 295 285 276 258
164 158 153 144 145 147 145 150 151 148 146 119 112 113 103 45 132 126 131 138 149 154 157 149 144 148 160 173 172 168 166 131 173 186 281 314 320 305 297 289 284 276 261
147 149 146 144 150 153 154 160 162 154 145 133 137 142 141 155 281 100 132 141 156 164 164 168 162 150 153 157 165 164 165 167 187 187 221 259 288 299 298 296 280 267 257